Location: Allentsteig
(48.6833°N, 15.3167°E)
Time: 09:09:25
(UTC+00:00)

USA 238 DEB - Visible Passes

Search period start: 20 June 2021 00:00
Search period end: 30 June 2021 00:00
Orbit: 991 x 1221 km, 63.4° (Epoch: 18 June)

Date Brightness Start Highest point End Pass type
(mag) Time Alt. Az. Time Alt. Az. Time Alt. Az.
20 Jun 5.0 01:12:14 10° NW 01:19:09 48° NE 01:26:22 10° ESE visible
20 Jun 5.6 20:41:52 10° W 20:47:51 33° NNW 20:54:09 10° NE visible
20 Jun 6.1 22:35:27 10° NW 22:40:58 24° N 22:46:43 10° NE visible
21 Jun 5.4 00:27:24 10° NW 00:33:58 38° NNE 00:40:50 10° E visible
21 Jun 5.2 19:56:22 10° WSW 20:02:37 41° NNW 20:09:13 10° NE visible
21 Jun 6.1 21:50:01 10° WNW 21:55:30 24° N 22:01:13 10° NE visible
21 Jun 5.7 23:42:29 10° NW 23:48:41 31° NNE 23:55:10 10° E visible
22 Jun 4.2 01:33:32 10° NW 01:40:46 76° NE 01:48:20 10° SE visible
22 Jun 6.0 21:04:26 10° WNW 21:10:03 26° NNW 21:15:55 10° NE visible
22 Jun 5.9 22:57:27 10° NW 23:03:19 27° NNE 23:09:25 10° ENE visible
23 Jun 4.6 00:48:44 10° NW 00:55:48 57° NE 01:03:11 10° ESE visible
23 Jun 5.8 20:18:49 10° W 20:24:39 30° NNW 20:30:46 10° NE visible
23 Jun 6.0 22:12:16 10° NW 22:17:52 25° N 22:23:43 10° ENE visible
24 Jun 5.1 00:03:55 10° NW 00:10:41 44° NNE 00:17:47 10° ESE visible
24 Jun 3.9 01:54:55 10° NW 02:02:05 66° SW 02:09:34 10° SSE visible
24 Jun 6.1 21:26:54 10° NW 21:32:24 24° N 21:38:07 10° NE visible
24 Jun 5.4 23:19:02 10° NW 23:25:28 35° NNE 23:32:11 10° E visible
25 Jun 3.9 01:10:02 10° NW 01:17:18 90° NE 01:24:54 10° SE visible
25 Jun 6.1 20:41:23 10° WNW 20:46:55 25° N 20:52:41 10° NE visible
25 Jun 5.7 22:34:05 10° NW 22:40:09 29° NNE 22:46:29 10° ENE visible
26 Jun 4.3 00:25:13 10° NW 00:32:24 67° NE 00:39:55 10° SE visible
26 Jun 4.4 02:16:34 10° NW 02:23:06 37° WSW 02:29:52 10° S visible
26 Jun 5.9 19:55:47 10° WNW 20:01:29 27° NNW 20:07:27 10° NE visible
26 Jun 5.9 21:49:00 10° NW 21:54:45 26° NNE 22:00:44 10° ENE visible
26 Jun 4.7 23:40:25 10° NW 23:47:22 51° NE 23:54:39 10° ESE visible
27 Jun 4.0 01:31:29 10° NW 01:38:30 53° WSW 01:45:49 10° SSE visible
27 Jun 6.0 21:03:45 10° NW 21:09:17 24° N 21:15:03 10° ENE visible
27 Jun 5.1 22:55:35 10° NW 23:02:14 40° NNE 23:09:10 10° E visible
28 Jun 3.8 00:46:34 10° NW 00:53:48 76° SW 01:01:21 10° SSE visible
28 Jun 6.0 20:18:19 10° WNW 20:23:48 24° N 20:29:31 10° NE visible
28 Jun 5.5 22:10:41 10° NW 22:16:58 33° NNE 22:23:32 10° E visible
29 Jun 4.0 00:01:43 10° NW 00:08:58 80° NE 00:16:33 10° SE visible
29 Jun 4.7 01:53:19 10° WNW 01:59:23 29° WSW 02:05:38 10° SSW visible
29 Jun 5.7 21:25:40 10° NW 21:31:36 28° NNE 21:37:47 10° ENE visible
29 Jun 4.4 23:16:55 10° NW 23:24:01 60° NE 23:31:27 10° ESE visible
